OBJECT B, 51825

Orbit data source: Space-Track

You're viewing an Uncataloged Satellite

Recently launched and/or uncataloged satellites may have evolving metadata. Metadata may include but not limited to: Owner, Maufacturer, Bus, Motor, and Mission.

OBJECT B, 51825 is a satellite owned by Sanya RI (CN) in SSO that was launched on Sun, 27 Feb 2022 UTC via a CHANG ZHENG 8 launch vehicle from the Wenchang Satellite Launch Center (WSC). Unknown objects in Earth's orbit typically refer to objects detected orbiting the Earth but have not yet been identified or cataloged. These objects could be anything from previously untracked satellites, spent rocket stages, debris from satellite collisions, or even natural meteoroids temporarily captured by Earth's gravity.

Loading next visibility...
Identifier
51825, 2022-019B
Orbit
SSO
Last TLE update
6 hours ago
Origin
Flag of CNSANYZ (CN / PRC)
Manufacturer
DFH Shenzhen
Mission
Non-operational Civil Imaging
Bus & Motor
HAINAN-1, Unknown motor
Mass
55 kg wet, 55 kg dry
Launch date (UTC)
2022-02-27 (3 years ago)
Launch vehicle
CHANG ZHENG 8
Launch site
Wenchang Satellite Launch Center (WSC)
Object type
Unknown
Shape & HBR
Box + 2 Pan, 2 m
Radar Cross Section
0.583 m², Medium (>0.1 m² and < 1m²)

Expand to show TLE details & history

TLE from 6 hours ago
0 OBJECT B
1 51825U 22019B   25182.50178521  .00015605  00000-0  37685-3 0  9991
2 51825  97.3842 259.3684 0008713 337.6913  22.3953 15.41231878185271
Epoch: 2025-07-01T12:02Z
TLE epoch observation values (Epoch: 2025-07-01T12:02:34.242Z)
Latitude
-0.00005°
Longitude
158.92941°
Altitude
440.097 km
Speed
7.651 km/s
True Right ascension
17h 17m 28s
True Declination
0° 00' 00"
Sunlit
Object was in full shadow at epoch
Visualization orbit readout
Latitude
-53.94443°
Longitude
169.37856°
Altitude
458.357 km
Speed
7.639 km/s
Apparent Right ascension
17h 49m 51s
Apparent Declination
-47° 00' 45"
Sunlit
Object is in full shadow
Visualization observer readout
Local Sidereal Time
05:42:06
Azimuth
190.543° SSW
Elevation
-82.766°
Doppler factor
1
Orbital elements
Apogee altitude
445.349 km
Perigee altitude
433.469 km
Semi-major axis
6,817.546 km
Eccentricity
0.00087
Inclination
97.3842°
RAAN
259.3684°
Arg. of periapsis
337.6913°
True anomaly
Unknown
Mean anomaly
22.3953°
Eccentric anomaly
Unknown
Mean motion
3.85568 °/min
Orbital period
93.37 mins
BSTAR
0.00037685
Loading maneuver chart data...
Loading SW <> Apogee altitude chart data...
Loading historical data...
Loading historical data...
Loading historical data...
Loading historical data...
Loading historical data...
Loading historical data...
Loading historical data...

OBJECT B Visibility forecast

Observer location: undefined°, undefined°

Span
Click to sort rows by Start time (UTC) header in descending order
Start Az.
Max El. time (UTC)
Max El. Az.
Max El.
End time (UTC)
End Az.
4 mins2025-07-01 18:50:24.914Z326.41° NNW2025-07-01 18:52:24.914Z282.695° WNW17.642°2025-07-01 18:54:24.914Z245.37° WSW
5 mins2025-07-02 05:19:24.914Z178.958° S2025-07-02 05:21:24.914Z271.92° WNW43.001°2025-07-02 05:24:24.914Z342.743° N
|